FW6397 Weather Reports


Display with metric or nautical units.
time (UTC)temp
F
wind
direction
speed
MPH
gust
MPH
rain 1hr
in
rain 24hr
in
rain mn
in
humidity
%
barometer
mb
20200330073527 60 243 2.0 9.0 0.00 0.00 0.00 27 1017.5
20200330073026 60 243 3.0 8.0 0.00 0.00 0.00 27 1017.4
20200330072541 60 277 3.0 6.0 0.00 0.00 0.00 27 1017.4
20200330072019 60 267 2.0 7.0 0.00 0.00 0.00 27 1017.5
20200330071023 59 274 2.0 7.0 0.00 0.00 0.00 27 1017.5
20200330070523 59 265 3.0 7.0 0.00 0.00 0.00 27 1017.4
20200330070114 59 270 3.0 7.0 0.00 0.00 0.00 27 1017.5
20200330065520 59 260 2.0 5.0 0.00 0.00 0.00 27 1017.4
20200330065020 60 276 1.0 5.0 0.00 0.00 0.00 26 1017.4
20200330064521 60 266 2.0 7.0 0.00 0.00 0.00 25 1017.5
20200330064020 61 273 3.0 8.0 0.00 0.00 0.00 25 1017.4
20200330063519 61 273 4.0 7.0 0.00 0.00 0.00 25 1017.3
20200330063035 61 275 3.0 7.0 0.00 0.00 0.00 25 1017.3
20200330062527 61 267 2.0 7.0 0.00 0.00 0.00 24 1017.2
20200330062022 60 273 3.0 7.0 0.00 0.00 0.00 24 1017.1
20200330061021 60 279 2.0 5.0 0.00 0.00 0.00 24 1016.9
20200330060517 61 275 2.0 4.0 0.00 0.00 0.00 24 1016.9
20200330060048 61 265 1.0 4.0 0.00 0.00 0.00 24 1016.8
20200330055518 61 265 0.0 4.0 0.00 0.00 0.00 24 1016.8
20200330055016 61 265 0.0 6.0 0.00 0.00 0.00 24 1016.8
20200330054639 61 265 1.0 7.0 0.00 0.00 0.00 24 1016.8
20200330054026 62 270 3.0 7.0 0.00 0.00 0.00 23 1016.8
20200330053517 62 282 3.0 7.0 0.00 0.00 0.00 23 1016.7
20200330053038 63 277 3.0 7.0 0.00 0.00 0.00 22 1016.6
20200330052519 63 266 4.0 10.0 0.00 0.00 0.00 22 1016.6
20200330052017 63 258 4.0 10.0 0.00 0.00 0.00 22 1016.6
20200330051022 64 243 4.0 10.0 0.00 0.00 0.00 21 1016.4
20200330050519 64 262 4.0 12.0 0.00 0.00 0.00 21 1016.4
20200330050111 64 233 5.0 12.0 0.00 0.00 0.00 21 1016.4
20200330045518 64 246 4.0 11.0 0.00 0.00 0.00 21 1016.4
20200330045028 64 281 4.0 12.0 0.00 0.00 0.00 20 1016.4
20200330044601 65 277 6.0 12.0 0.00 0.00 0.00 20 1016.3
20200330044043 65 277 6.0 12.0 0.00 0.00 0.00 20 1016.3
20200330043521 65 259 7.0 10.0 0.00 0.00 0.00 20 1016.3
20200330043021 65 237 6.0 13.0 0.00 0.00 0.00 20 1016.3
20200330042517 65 275 5.0 13.0 0.00 0.00 0.00 19 1016.1
20200330042022 65 240 5.0 13.0 0.00 0.00 0.00 19 1016.1
20200330041015 65 251 4.0 10.0 0.00 0.00 0.00 18 1016.0
20200330040516 65 243 5.0 11.0 0.00 0.00 0.00 18 1016.0
20200330040038 65 266 5.0 11.0 0.00 0.00 0.00 18 1016.0
20200330035514 66 229 5.0 12.0 0.00 0.00 0.00 18 1015.9
20200330035013 66 246 5.0 12.0 0.00 0.00 0.00 18 1015.9
20200330034524 66 233 3.0 12.0 0.00 0.00 0.00 18 1015.9
20200330034019 66 272 5.0 10.0 0.00 0.00 0.00 17 1015.7
20200330033529 66 257 4.0 11.0 0.00 0.00 0.00 17 1015.7
20200330033043 66 273 5.0 11.0 0.00 0.00 0.00 17 1015.6
20200330032512 66 252 2.0 12.0 0.00 0.00 0.00 17 1015.6
20200330032013 66 259 5.0 12.0 0.00 0.00 0.00 17 1015.5
20200330031013 66 237 4.0 10.0 0.00 0.00 0.00 16 1015.2
20200330030511 66 235 4.0 9.0 0.00 0.00 0.00 16 1015.3
20200330030015 66 244 4.0 15.0 0.00 0.00 0.00 16 1015.1
20200330025515 67 254 6.0 15.0 0.00 0.00 0.00 16 1014.9
20200330025023 66 241 4.0 10.0 0.00 0.00 0.00 16 1014.8
20200330024532 67 225 4.0 9.0 0.00 0.00 0.00 15 1014.8
20200330023520 67 237 3.0 8.0 0.00 0.00 0.00 15 1015.0
20200330023012 67 241 3.0 11.0 0.00 0.00 0.00 15 1014.9
20200330022510 67 242 2.0 11.0 0.00 0.00 0.00 15 1014.8
20200330022014 67 256 2.0 6.0 0.00 0.00 0.00 15 1014.7
20200330021028 68 265 3.0 5.0 0.00 0.00 0.00 15 1014.8
20200330020514 68 241 3.0 5.0 0.00 0.00 0.00 15 1014.8
20200330020106 68 260 2.0 6.0 0.00 0.00 0.00 15 1014.8
20200330015510 68 262 1.0 9.0 0.00 0.00 0.00 15 1014.7
20200330015036 69 266 4.0 10.0 0.00 0.00 0.00 14 1014.7
20200330014510 69 262 5.0 10.0 0.00 0.00 0.00 14 1014.7
20200330014010 69 238 3.0 8.0 0.00 0.00 0.00 14 1014.7
20200330013509 69 252 3.0 11.0 0.00 0.00 0.00 14 1014.7
20200330013035 69 277 6.0 11.0 0.00 0.00 0.00 14 1014.7
20200330012510 69 258 5.0 10.0 0.00 0.00 0.00 14 1014.7
20200330012009 70 263 3.0 10.0 0.00 0.00 0.00 13 1014.7
20200330011009 70 287 3.0 8.0 0.00 0.00 0.00 13 1014.6
20200330010509 71 289 3.0 11.0 0.00 0.00 0.00 13 1014.6
20200330010038 71 281 6.0 11.0 0.00 0.00 0.00 12 1014.5
20200330005509 72 270 4.0 9.0 0.00 0.00 0.00 12 1014.4
20200330005009 72 318 3.0 10.0 0.00 0.00 0.00 11 1014.4
20200330004534 72 278 5.0 9.0 0.00 0.00 0.00 12 1014.4
20200330004009 72 262 5.0 9.0 0.00 0.00 0.00 11 1014.4
20200330003510 72 268 2.0 9.0 0.00 0.00 0.00 12 1014.3
20200330003014 72 232 3.0 10.0 0.00 0.00 0.00 12 1014.2
20200330002509 72 249 4.0 13.0 0.00 0.00 0.00 11 1014.3
20200330002010 73 264 5.0 13.0 0.00 0.00 0.00 11 1014.4
20200330001006 73 211 3.0 11.0 0.00 0.00 0.00 11 1014.5
20200330000506 73 229 5.0 14.0 0.00 0.00 0.00 11 1014.4
20200330000025 73 279 1.0 14.0 0.00 0.00 0.00 10 1014.5
20200329235506 73 232 4.0 10.0 0.00 0.00 0.00 11 1014.5
20200329235007 73 283 6.0 12.0 0.00 0.00 0.00 10 1014.5
20200329234504 74 256 4.0 12.0 0.00 0.00 0.00 10 1014.6
20200329234005 74 263 3.0 14.0 0.00 0.00 0.00 10 1014.7
20200329233504 73 276 6.0 14.0 0.00 0.00 0.00 10 1014.7
20200329233015 74 246 6.0 15.0 0.00 0.00 0.00 10 1014.7
20200329232508 74 352 4.0 13.0 0.00 0.00 0.00 10 1014.8
20200329232010 74 250 6.0 14.0 0.00 0.00 0.00 10 1014.9
20200329231001 74 264 7.0 13.0 0.00 0.00 0.00 9 1014.9
20200329230501 74 233 5.0 14.0 0.00 0.00 0.00 11 1015.0
20200329225600 74 267 5.0 13.0 0.00 0.00 0.00 12 1015.1
20200329225129 73 285 8.0 16.0 0.00 0.00 0.00 12 1015.1
20200329224632 74 227 8.0 16.0 0.00 0.00 0.00 12 1015.1
20200329224059 74 296 8.0 14.0 0.00 0.00 0.00 12 1015.2
20200329223558 74 268 8.0 13.0 0.00 0.00 0.00 12 1015.1
20200329222606 75 275 6.0 14.0 0.00 0.00 0.00 11 1015.3
20200329222058 74 258 4.0 14.0 0.00 0.00 0.00 11 1015.3
20200329221056 75 286 5.0 16.0 0.00 0.00 0.00 11 1015.3
20200329221026 75 280 5.0 16.0 0.00 0.00 0.00 11 1015.3
20200329220602 76 323 3.0 13.0 0.00 0.00 0.00 11 1015.4
20200329220202 75 274 5.0 12.0 0.00 0.00 0.00 11 1015.3
20200329220038 75 277 4.0 12.0 0.00 0.00 0.00 11 1015.3
20200329215631 76 246 4.0 11.0 0.00 0.00 0.00 10 1015.3
20200329215053 75 248 6.0 14.0 0.00 0.00 0.00 11 1015.4
20200329214640 74 277 6.0 14.0 0.00 0.00 0.00 11 1015.6
20200329214103 73 347 3.0 12.0 0.00 0.00 0.00 12 1015.6
20200329213551 73 19 2.0 9.0 0.00 0.00 0.00 11 1015.6
20200329213053 75 271 3.0 11.0 0.00 0.00 0.00 10 1015.6
20200329212551 75 223 6.0 11.0 0.00 0.00 0.00 11 1015.7
20200329212054 75 179 1.0 9.0 0.00 0.00 0.00 11 1015.6
20200329211650 74 226 2.0 8.0 0.00 0.00 0.00 11 1015.7
20200329211050 73 342 3.0 6.0 0.00 0.00 0.00 10 1015.6
20200329210550 74 165 2.0 5.0 0.00 0.00 0.00 10 1015.7
20200329210057 73 171 2.0 6.0 0.00 0.00 0.00 10 1015.8
20200329205553 72 277 1.0 7.0 0.00 0.00 0.00 9 1015.8
20200329205107 72 244 2.0 10.0 0.00 0.00 0.00 9 1015.9
20200329204055 74 251 4.0 10.0 0.00 0.00 0.00 10 1016.1
20200329203548 73 169 3.0 8.0 0.00 0.00 0.00 11 1016.0
20200329203100 73 327 2.0 9.0 0.00 0.00 0.00 11 1016.1
20200329202545 73 227 5.0 9.0 0.00 0.00 0.00 11 1016.4
20200329202048 73 247 3.0 8.0 0.00 0.00 0.00 12 1016.3
20200329201627 72 238 1.0 8.0 0.00 0.00 0.00 11 1016.5
20200329201046 72 352 2.0 10.0 0.00 0.00 0.00 11 1016.6
20200329200542 73 243 5.0 10.0 0.00 0.00 0.00 13 1016.6
20200329200056 73 248 3.0 12.0 0.00 0.00 0.00 14 1016.7
20200329195540 72 237 6.0 12.0 0.00 0.00 0.00 14 1016.8
20200329195043 71 255 2.0 8.0 0.00 0.00 0.00 14 1016.8
20200329194039 71 249 4.0 9.0 0.00 0.00 0.00 14 1017.0
20200329193543 72 229 4.0 9.0 0.00 0.00 0.00 14 1017.0
20200329193137 72 150 0.0 7.0 0.00 0.00 0.00 13 1016.9
20200329192538 71 147 2.0 7.0 0.00 0.00 0.00 14 1017.1
20200329192038 72 208 3.0 8.0 0.00 0.00 0.00 12 1017.1
20200329191601 71 217 3.0 9.0 0.00 0.00 0.00 13 1017.2
20200329191040 71 279 4.0 8.0 0.00 0.00 0.00 12 1017.2
20200329190536 71 218 2.0 4.0 0.00 0.00 0.00 11 1017.2
20200329190143 71 147 2.0 4.0 0.00 0.00 0.00 12 1017.3
20200329185542 70 183 0.0 4.0 0.00 0.00 0.00 11 1017.4
20200329185035 70 175 2.0 5.0 0.00 0.00 0.00 12 1017.4
20200329184034 71 201 3.0 6.0 0.00 0.00 0.00 9 1017.4
20200329183535 71 110 2.0 6.0 0.00 0.00 0.00 16 1017.5
20200329183124 70 195 1.0 6.0 0.00 0.00 0.00 16 1017.6
20200329182531 69 149 2.0 6.0 0.00 0.00 0.00 17 1017.7
20200329182050 69 66 1.0 6.0 0.00 0.00 0.00 18 1017.8
20200329181610 68 208 1.0 3.0 0.00 0.00 0.00 18 1017.8
20200329181030 68 102 1.0 7.0 0.00 0.00 0.00 19 1017.9
20200329180552 69 131 3.0 7.0 0.00 0.00 0.00 17 1018.0
20200329180059 68 120 1.0 3.0 0.00 0.00 0.00 21 1018.0
20200329175528 67 134 2.0 7.0 0.00 0.00 0.00 19 1018.1
20200329175028 66 117 2.0 7.0 0.00 0.00 0.00 22 1018.1
20200329174026 66 182 1.0 5.0 0.00 0.00 0.00 21 1018.1
20200329173526 65 173 1.0 4.0 0.00 0.00 0.00 22 1018.2
20200329173042 65 108 1.0 8.0 0.00 0.00 0.00 24 1018.2
20200329172526 64 120 3.0 8.0 0.00 0.00 0.00 23 1018.1
20200329172026 65 126 2.0 6.0 0.00 0.00 0.00 23 1018.3
20200329171551 64 169 3.0 7.0 0.00 0.00 0.00 24 1018.4
20200329171027 64 167 2.0 7.0 0.00 0.00 0.00 25 1018.2
20200329170527 63 142 2.0 7.0 0.00 0.00 0.00 25 1018.3
20200329170114 63 127 3.0 7.0 0.00 0.00 0.00 26 1018.3
20200329165532 63 115 2.0 8.0 0.00 0.00 0.00 25 1018.4
20200329165020 62 104 4.0 8.0 0.00 0.00 0.00 27 1018.4
20200329164020 62 173 1.0 7.0 0.00 0.00 0.00 26 1018.5
20200329163518 61 169 2.0 7.0 0.00 0.00 0.00 27 1018.6
20200329163024 60 163 2.0 7.0 0.00 0.00 0.00 28 1018.4
20200329162516 60 133 2.0 5.0 0.00 0.00 0.00 28 1018.6
20200329162017 60 154 2.0 5.0 0.00 0.00 0.00 28 1018.6
20200329161558 59 106 1.0 4.0 0.00 0.00 0.00 29 1018.4
20200329161015 58 123 2.0 6.0 0.00 0.00 0.00 30 1018.6
20200329160514 58 159 0.0 7.0 0.00 0.00 0.00 32 1018.6
20200329160019 57 132 3.0 5.0 0.00 0.00 0.00 33 1018.6
20200329155516 57 143 2.0 5.0 0.00 0.00 0.00 34 1018.6
20200329155022 56 165 2.0 7.0 0.00 0.00 0.00 34 1018.6
20200329154012 55 115 3.0 6.0 0.00 0.00 0.00 35 1018.7
20200329153529 54 152 3.0 5.0 0.00 0.00 0.00 36 1018.7
20200329153029 54 154 3.0 6.0 0.00 0.00 0.00 35 1018.8
20200329152529 54 156 2.0 5.0 0.00 0.00 0.00 37 1018.9
20200329152012 54 160 2.0 4.0 0.00 0.00 0.00 36 1019.1
20200329151521 53 151 2.0 7.0 0.00 0.00 0.00 37 1019.1
20200329151025 53 160 3.0 7.0 0.00 0.00 0.00 37 1019.1
20200329150515 52 140 2.0 6.0 0.00 0.00 0.00 38 1019.1
20200329150023 52 162 1.0 5.0 0.00 0.00 0.00 39 1019.1
20200329145511 52 144 2.0 5.0 0.00 0.00 0.00 38 1019.1
20200329145011 51 133 2.0 4.0 0.00 0.00 0.00 39 1018.9
20200329144011 51 133 3.0 5.0 0.00 0.00 0.00 39 1018.8
20200329143508 50 172 1.0 3.0 0.00 0.00 0.00 40 1018.9
20200329143008 49 175 0.0 3.0 0.00 0.00 0.00 41 1018.9
20200329142512 49 205 0.0 3.0 0.00 0.00 0.00 41 1018.8
20200329142007 48 205 0.0 4.0 0.00 0.00 0.00 43 1018.7
20200329141529 47 204 1.0 4.0 0.00 0.00 0.00 45 1018.8
20200329141006 46 205 1.0 3.0 0.00 0.00 0.00 47 1018.6
20200329140511 45 205 2.0 3.0 0.00 0.00 0.00 49 1018.6
20200329140013 44 198 2.0 3.0 0.00 0.00 0.00 50 1018.6
20200329135508 44 198 1.0 3.0 0.00 0.00 0.00 50 1018.5
20200329135005 44 198 1.0 2.0 0.00 0.00 0.00 50 1018.5
20200329134005 45 198 0.0 2.0 0.00 0.00 0.00 48 1018.5
20200329133508 45 198 1.0 3.0 0.00 0.00 0.00 48 1018.4
20200329133006 45 198 1.0 3.0 0.00 0.00 0.00 48 1018.5
20200329132507 45 198 1.0 3.0 0.00 0.00 0.00 48 1018.5
20200329132005 45 198 1.0 3.0 0.00 0.00 0.00 48 1018.5
20200329131531 45 198 0.0 3.0 0.00 0.00 0.00 49 1018.4
20200329131004 45 150 0.0 3.0 0.00 0.00 0.00 48 1018.4
20200329130504 45 150 0.0 3.0 0.00 0.00 0.00 48 1018.3
20200329130013 45 150 0.0 2.0 0.00 0.00 0.00 48 1018.2
20200329125503 45 150 0.0 3.0 0.00 0.00 0.00 48 1018.2
20200329125004 45 150 1.0 3.0 0.00 0.00 0.00 48 1018.2
20200329124005 45 150 2.0 5.0 0.00 0.00 0.00 48 1018.1
20200329123502 45 151 2.0 5.0 0.00 0.00 0.00 47 1017.9
20200329122600 46 158 2.0 4.0 0.00 0.00 0.00 46 1018.1
20200329122104 46 169 1.0 6.0 0.00 0.00 0.00 45 1017.9
20200329121616 46 157 3.0 6.0 0.00 0.00 0.00 45 1018.0
20200329121501 46 150 4.0 6.0 0.00 0.00 0.00 45 1018.1
20200329121058 46 150 2.0 6.0 0.00 0.00 0.00 45 1018.1
20200329120607 46 151 2.0 6.0 0.00 0.00 0.00 45 1017.8
20200329120205 46 173 4.0 6.0 0.00 0.00 0.00 45 1017.8
20200329115557 46 152 3.0 5.0 0.00 0.00 0.00 44 1017.8
20200329115056 46 148 3.0 6.0 0.00 0.00 0.00 44 1017.8
20200329114615 47 155 3.0 7.0 0.00 0.00 0.00 43 1018.0
20200329114059 47 141 3.0 7.0 0.00 0.00 0.00 43 1017.9
20200329113553 47 137 4.0 7.0 0.00 0.00 0.00 41 1017.8
20200329113140 47 160 3.0 7.0 0.00 0.00 0.00 41 1017.9
20200329112618 47 175 2.0 5.0 0.00 0.00 0.00 42 1018.1
20200329112054 47 163 1.0 4.0 0.00 0.00 0.00 42 1018.0
20200329111635 47 155 1.0 4.0 0.00 0.00 0.00 42 1017.8
20200329111053 47 220 1.0 3.0 0.00 0.00 0.00 42 1017.9
20200329110552 47 227 0.0 3.0 0.00 0.00 0.00 45 1018.0
20200329110106 47 227 0.0 3.0 0.00 0.00 0.00 46 1018.1
20200329105551 47 227 1.0 3.0 0.00 0.00 0.00 45 1018.2
20200329105054 47 227 0.0 2.0 0.00 0.00 0.00 45 1018.1
20200329104601 47 227 0.0 0.0 0.00 0.00 0.00 45 1018.0
20200329104051 47 227 0.0 0.0 0.00 0.00 0.00 45 1018.0
20200329103550 47 227 0.0 1.0 0.00 0.00 0.00 45 1018.2
20200329103308 47 227 0.0 3.0 0.00 0.00 0.00 44 1018.2
20200329102549 47 227 1.0 3.0 0.00 0.00 0.00 43 1018.2
20200329102049 47 325 0.0 0.0 0.00 0.00 0.00 44 1018.1
20200329101645 47 335 0.0 0.0 0.00 0.00 0.00 46 1018.1
20200329101049 47 335 0.0 0.0 0.00 0.00 0.00 45 1018.2
20200329100549 48 335 0.0 2.0 0.00 0.00 0.00 45 1018.3
20200329100107 48 335 0.0 2.0 0.00 0.00 0.00 43 1018.3
20200329095548 47 335 0.0 1.0 0.00 0.00 0.00 44 1018.2
20200329095048 47 335 0.0 1.0 0.00 0.00 0.00 46 1018.1
20200329094601 48 335 0.0 1.0 0.00 0.00 0.00 45 1018.3
20200329094051 48 335 0.0 1.0 0.00 0.00 0.00 45 1018.3
20200329093547 48 335 0.0 1.0 0.00 0.00 0.00 44 1018.2
20200329093116 48 335 0.0 1.0 0.00 0.00 0.00 43 1018.3
20200329092611 48 335 0.0 2.0 0.00 0.00 0.00 44 1018.4
20200329092044 48 335 0.0 1.0 0.00 0.00 0.00 44 1018.3
20200329091043 49 335 0.0 2.0 0.00 0.00 0.00 42 1018.6
20200329090605 48 335 1.0 2.0 0.00 0.00 0.00 43 1018.7
20200329090211 49 335 0.0 2.0 0.00 0.00 0.00 42 1018.9
20200329085546 49 335 0.0 0.0 0.00 0.00 0.00 42 1018.7
20200329085041 49 335 0.0 0.0 0.00 0.00 0.00 42 1018.6
20200329084628 49 335 0.0 0.0 0.00 0.00 0.00 40 1018.8
20200329084040 49 335 0.0 0.0 0.00 0.00 0.00 40 1018.8
20200329083539 50 335 0.0 0.0 0.00 0.00 0.00 39 1018.9
20200329083048 50 335 0.0 0.0 0.00 0.00 0.00 38 1019.1
20200329082537 50 335 0.0 0.0 0.00 0.00 0.00 38 1019.0
20200329082040 50 335 0.0 0.0 0.00 0.00 0.00 37 1019.1
20200329081601 51 335 0.0 0.0 0.00 0.00 0.00 35 1019.2
20200329081042 51 335 0.0 2.0 0.00 0.00 0.00 36 1019.2
20200329080535 51 335 0.0 2.0 0.00 0.00 0.00 35 1019.2
20200329080134 52 335 0.0 2.0 0.00 0.00 0.00 34 1019.2
20200329075534 53 335 0.0 2.0 0.00 0.00 0.00 31 1019.0
20200329075030 54 335 0.0 2.0 0.00 0.00 0.00 31 1019.1
20200329074550 55 335 1.0 3.0 0.00 0.00 0.00 27 1019.1
20200329074033 55 321 1.0 3.0 0.00 0.00 0.00 28 1019.1